Location: Kershaw
(34.5481°N, 80.5823°W)
Time: 10:14:56
(UTC+00:00)

Altair - Pass Details

Date: 10 October 2022
Orbit: 1501 x 1682 km, 47.2° (Epoch: 30 November)

Event Time Altitude Azimuth Distance (km) Brightness Sun altitude
Rises 15:49:19 0° 302° (WNW) 4,901 9.8 44.5°
Reaches altitude 10° 15:52:37 10° 296° (WNW) 3,926 9.4 44.9°
Maximum altitude 16:02:00 45° 228° (SW) 2,161 9.0 45.7°
Drops below altitude 10° 16:11:25 10° 159° (SSE) 3,919 10.6 46.4°
Sets 16:14:44 0° 154° (SSE) 4,892 10.9 46.7°
